| time (UTC) | temp C | wind direction | speed KPH | gust KPH | rain 1hr cm | rain 24hr cm | rain mn cm | humidity % | barometer mb |
| 20260506201548 | 16 | 346 | 0.0 | 4.8 | 0.05 | 0.10 | 0.10 | 93 | 1005.8 |
| 20260506200120 | 16 | 331 | 0.0 | 1.6 | 0.05 | 0.08 | 0.08 | 93 | 1005.8 |
| 20260506194547 | 16 | 270 | 0.0 | 1.6 | 0.08 | 0.08 | 0.08 | 92 | 1005.8 |
| 20260506193046 | 16 | 322 | 0.0 | 1.6 | 0.08 | 0.08 | 0.08 | 91 | 1005.9 |
| 20260506191547 | 17 | 320 | 0.0 | 3.2 | 0.05 | 0.05 | 0.05 | 88 | 1005.8 |
| 20260506190045 | 17 | 306 | 0.0 | 4.8 | 0.03 | 0.03 | 0.03 | 84 | 1005.9 |
| 20260506184543 | 18 | 245 | 0.0 | 11.3 | 0.00 | 0.00 | 0.00 | 80 | 1006.0 |
| 20260506183042 | 19 | 10 | 0.0 | 6.4 | 0.00 | 0.00 | 0.00 | 74 | 1006.1 |
| 20260506181542 | 20 | 248 | 3.2 | 11.3 | 0.00 | 0.00 | 0.00 | 69 | 1006.2 |
| 20260506180047 | 20 | 300 | 0.0 | 11.3 | 0.00 | 0.00 | 0.00 | 67 | 1006.2 |
| 20260506174539 | 21 | 329 | 3.2 | 9.7 | 0.00 | 0.00 | 0.00 | 60 | 1006.3 |
| 20260506173038 | 21 | 348 | 1.6 | 9.7 | 0.00 | 0.00 | 0.00 | 59 | 1006.0 |
| 20260506171548 | 22 | 307 | 1.6 | 9.7 | 0.00 | 0.00 | 0.00 | 59 | 1006.2 |
| 20260506170036 | 21 | 265 | 1.6 | 6.4 | 0.00 | 0.00 | 0.00 | 62 | 1006.3 |
| 20260506164528 | 21 | 264 | 0.0 | 4.8 | 0.00 | 0.00 | 0.00 | 63 | 1006.6 |
| 20260506163034 | 21 | 334 | 0.0 | 9.7 | 0.00 | 0.00 | 0.00 | 64 | 1006.9 |
| 20260506161536 | 21 | 336 | 0.0 | 4.8 | 0.00 | 0.00 | 0.00 | 64 | 1007.0 |
| 20260506160024 | 21 | 315 | 1.6 | 6.4 | 0.00 | 0.00 | 0.00 | 65 | 1007.3 |
| 20260506154520 | 20 | 336 | 0.0 | 6.4 | 0.00 | 0.00 | 0.00 | 67 | 1007.6 |
| 20260506153020 | 20 | 313 | 0.0 | 6.4 | 0.00 | 0.00 | 0.00 | 67 | 1007.9 |
| 20260506151519 | 20 | 262 | 0.0 | 11.3 | 0.00 | 0.00 | 0.00 | 68 | 1008.1 |
| 20260506150023 | 21 | 258 | 0.0 | 16.1 | 0.00 | 0.00 | 0.00 | 66 | 1008.0 |
| 20260506144517 | 21 | 320 | 1.6 | 9.7 | 0.00 | 0.00 | 0.00 | 66 | 1008.4 |
| 20260506143016 | 21 | 307 | 0.0 | 6.4 | 0.00 | 0.00 | 0.00 | 67 | 1008.2 |
| 20260506141514 | 20 | 47 | 1.6 | 8.0 | 0.00 | 0.00 | 0.00 | 69 | 1007.9 |
| 20260506140011 | 20 | 212 | 0.0 | 8.0 | 0.00 | 0.00 | 0.00 | 73 | 1008.0 |
| 20260506134519 | 19 | 236 | 0.0 | 8.0 | 0.00 | 0.00 | 0.00 | 73 | 1008.1 |
| 20260506133004 | 18 | 227 | 0.0 | 6.4 | 0.00 | 0.00 | 0.00 | 77 | 1008.4 |
| 20260506131503 | 18 | 74 | 0.0 | 9.7 | 0.00 | 0.00 | 0.00 | 77 | 1008.7 |
| 20260506130059 | 17 | 298 | 0.0 | 4.8 | 0.00 | 0.00 | 0.00 | 78 | 1008.7 |
| 20260506124600 | 17 | 339 | 0.0 | 3.2 | 0.00 | 0.00 | 0.00 | 79 | 1008.8 |
| 20260506123057 | 17 | 264 | 0.0 | 6.4 | 0.00 | 0.00 | 0.00 | 79 | 1008.5 |
| 20260506121606 | 17 | 358 | 0.0 | 6.4 | 0.00 | 0.00 | 0.00 | 79 | 1008.9 |
| 20260506120055 | 17 | 286 | 0.0 | 4.8 | 0.00 | 0.00 | 0.00 | 81 | 1008.7 |
| 20260506114554 | 16 | 358 | 0.0 | 4.8 | 0.00 | 0.00 | 0.00 | 83 | 1008.9 |
| 20260506113052 | 16 | 277 | 0.0 | 3.2 | 0.00 | 0.00 | 0.00 | 83 | 1009.0 |
| 20260506111608 | 15 | 348 | 0.0 | 4.8 | 0.00 | 0.00 | 0.00 | 83 | 1009.2 |
| 20260506110052 | 15 | 279 | 0.0 | 3.2 | 0.00 | 0.00 | 0.00 | 85 | 1009.0 |
| 20260506104549 | 15 | 291 | 0.0 | 3.2 | 0.00 | 0.00 | 0.00 | 86 | 1009.1 |
| 20260506103048 | 14 | 257 | 0.0 | 1.6 | 0.00 | 0.00 | 0.00 | 85 | 1009.0 |
| 20260506101546 | 14 | 257 | 0.0 | 1.6 | 0.00 | 0.00 | 0.00 | 85 | 1009.0 |
| 20260506100046 | 14 | 300 | 0.0 | 1.6 | 0.00 | 0.00 | 0.00 | 85 | 1009.0 |
| 20260506094545 | 14 | 53 | 0.0 | 1.6 | 0.00 | 0.00 | 0.00 | 84 | 1009.0 |
| 20260506093051 | 14 | 234 | 0.0 | 1.6 | 0.00 | 0.00 | 0.00 | 84 | 1008.8 |
| 20260506091542 | 15 | 248 | 0.0 | 3.2 | 0.00 | 0.00 | 0.00 | 83 | 1008.9 |
| 20260506090040 | 15 | 317 | 0.0 | 0.0 | 0.00 | 0.00 | 0.00 | 82 | 1008.9 |
| 20260506084538 | 15 | 252 | 0.0 | 1.6 | 0.00 | 0.00 | 0.00 | 82 | 1008.8 |
| 20260506083037 | 15 | 262 | 0.0 | 3.2 | 0.00 | 0.00 | 0.00 | 81 | 1008.9 |
| 20260506081543 | 15 | 276 | 0.0 | 1.6 | 0.00 | 0.00 | 0.00 | 80 | 1008.9 |
| 20260506073034 | 15 | 261 | 0.0 | 3.2 | 0.00 | 0.00 | 0.00 | 78 | 1008.9 |
| 20260506071533 | 16 | 340 | 0.0 | 6.4 | 0.00 | 0.00 | 0.00 | 77 | 1008.8 |
| 20260506061534 | 16 | 148 | 0.0 | 1.6 | 0.00 | 0.00 | 0.00 | 73 | 1008.5 |
| 20260506044518 | 16 | 313 | 0.0 | 6.4 | 0.00 | 0.00 | 0.00 | 71 | 1008.9 |
| 20260506043015 | 16 | 260 | 0.0 | 3.2 | 0.00 | 0.00 | 0.00 | 70 | 1008.9 |
| 20260506041628 | 16 | 68 | 0.0 | 6.4 | 0.00 | 0.00 | 0.00 | 70 | 1008.8 |
| 20260506040011 | 16 | 6 | 0.0 | 1.6 | 0.00 | 0.00 | 0.00 | 69 | 1008.9 |
| 20260506034511 | 16 | 14 | 0.0 | 3.2 | 0.00 | 0.00 | 0.00 | 68 | 1008.9 |
| 20260506033015 | 17 | 62 | 0.0 | 1.6 | 0.00 | 0.00 | 0.00 | 67 | 1008.9 |
| 20260506031510 | 17 | 284 | 0.0 | 8.0 | 0.00 | 0.00 | 0.00 | 65 | 1008.9 |
| 20260506030012 | 17 | 222 | 0.0 | 1.6 | 0.00 | 0.00 | 0.00 | 65 | 1008.8 |
| 20260506024525 | 17 | 249 | 0.0 | 1.6 | 0.00 | 0.00 | 0.00 | 64 | 1008.9 |
| 20260506023008 | 18 | 209 | 0.0 | 1.6 | 0.00 | 0.00 | 0.00 | 64 | 1008.8 |
| 20260506021510 | 18 | 281 | 0.0 | 1.6 | 0.00 | 0.00 | 0.00 | 62 | 1008.8 |
| 20260506020007 | 18 | 281 | 0.0 | 1.6 | 0.00 | 0.00 | 0.00 | 60 | 1008.9 |
| 20260506014512 | 19 | 281 | 0.0 | 1.6 | 0.00 | 0.00 | 0.00 | 59 | 1008.7 |
| 20260506013006 | 20 | 295 | 0.0 | 3.2 | 0.00 | 0.00 | 0.00 | 57 | 1008.5 |
| 20260506011506 | 20 | 295 | 0.0 | 12.9 | 0.00 | 0.00 | 0.00 | 56 | 1008.5 |
| 20260506010005 | 20 | 261 | 0.0 | 3.2 | 0.00 | 0.00 | 0.00 | 55 | 1007.9 |
| 20260506004506 | 20 | 341 | 0.0 | 9.7 | 0.00 | 0.00 | 0.00 | 54 | 1007.8 |
| 20260506003005 | 21 | 275 | 0.0 | 6.4 | 0.00 | 0.00 | 0.00 | 53 | 1007.4 |
| 20260506001504 | 21 | 346 | 0.0 | 6.4 | 0.00 | 0.00 | 0.00 | 51 | 1007.0 |
| 20260506000001 | 21 | 336 | 0.0 | 4.8 | 0.00 | 0.00 | 0.00 | 50 | 1006.8 |
| 20260505234608 | 22 | 258 | 1.6 | 8.0 | 0.00 | 0.00 | 0.00 | 49 | 1006.6 |
| 20260505233102 | 22 | 80 | 0.0 | 9.7 | 0.00 | 0.00 | 0.00 | 48 | 1006.2 |
| 20260505231613 | 23 | 319 | 0.0 | 4.8 | 0.00 | 0.00 | 0.00 | 46 | 1006.1 |
| 20260505230109 | 23 | 293 | 1.6 | 8.0 | 0.00 | 0.00 | 0.00 | 44 | 1005.9 |
| 20260505224559 | 25 | 250 | 0.0 | 8.0 | 0.00 | 0.00 | 0.00 | 43 | 1005.8 |
| 20260505223058 | 25 | 7 | 0.0 | 6.4 | 0.00 | 0.00 | 0.00 | 42 | 1005.4 |
| 20260505221601 | 26 | 107 | 3.2 | 17.7 | 0.00 | 0.00 | 0.00 | 40 | 1004.8 |
| 20260505220057 | 26 | 281 | 1.6 | 17.7 | 0.00 | 0.00 | 0.00 | 39 | 1004.7 |
| 20260505214554 | 26 | 287 | 4.8 | 14.5 | 0.00 | 0.00 | 0.00 | 37 | 1004.8 |
| 20260505213054 | 27 | 242 | 0.0 | 16.1 | 0.00 | 0.00 | 0.00 | 34 | 1004.5 |
| 20260505211552 | 27 | 340 | 3.2 | 16.1 | 0.00 | 0.00 | 0.00 | 33 | 1004.5 |
| 20260505210051 | 28 | 49 | 3.2 | 22.5 | 0.00 | 0.00 | 0.00 | 33 | 1004.4 |
| 20260505204552 | 27 | 22 | 4.8 | 19.3 | 0.00 | 0.00 | 0.00 | 33 | 1004.2 |
| 20260505203057 | 27 | 354 | 1.6 | 12.9 | 0.00 | 0.00 | 0.00 | 35 | 1004.4 |